Location: Unspecified
(0.0000°N, 0.0000°E)
Time: 12:38:02
(UTC+00:00)

CUBEBUG 2 - Visible Passes

Search period start: 21 January 2018 00:00
Search period end: 31 January 2018 00:00
Orbit: 587 x 699 km, 97.6° (Epoch: 20 January)

Date Brightness Start Highest point End Pass type
(mag) Time Alt. Az. Time Alt. Az. Time Alt. Az.
21 Jan ? 19:21:10 10° SSW 19:24:59 35° W 19:28:54 10° NW visible
22 Jan ? 19:46:48 10° SW 19:49:22 16° W 19:51:58 10° WNW visible
23 Jan ? 18:33:21 10° SSE 18:37:22 43° ENE 18:41:28 10° N visible
24 Jan ? 18:57:30 10° S 19:01:44 79° W 19:06:04 10° NNW visible
25 Jan ? 19:22:17 10° SSW 19:26:07 33° W 19:30:01 10° NW visible
26 Jan ? 19:48:00 10° SW 19:50:29 15° W 19:53:02 10° WNW visible
27 Jan ? 18:34:22 10° SSE 18:38:29 47° ENE 18:42:42 10° N visible
28 Jan ? 18:58:34 10° S 19:02:50 74° WSW 19:07:14 10° NNW visible
29 Jan ? 19:23:24 10° SSW 19:27:13 32° W 19:31:09 10° NW visible
30 Jan ? 19:49:11 10° SW 19:51:37 15° W 19:54:04 10° WNW visible
